TJS-22

Last updated on Tue Sep 22 2026 00:03:16 GMT+0000 (Coordinated Universal Time)

1 66990U 25290A 26264.57357106 -.00000012 00000+0 00000+0 0 9994 2 66990 1.3028 288.3910 0004199 323.1800 21.8466 1.00273233 2984
UTC large
Height (km)
Speed (km/s)
/
Latitude / Longitude
Inclination (degrees)
Orbital Period (minutes)
Azimuth
Elevation
Range (km)
Doppler Factor

Next 0 passes for location: London (51.5072 / 0.1276)

No passes found over London.
TJS-22